RH
75 70 66 59 48 38 31 27 26 27 29 31 32 32 32 33 35 38 43 50 54 56 57 58 57 55 53 49 42 35 30 29 31 32 32 33 33 35 40 43 50 53 45 41 41 39 41 42 41 43 42 37 33 27 27 31 35 41 46 50 55 61 69 72 69 71 75 77 76 74 75 77 73 73 75 75 77 80 82 84 82 77 78 81 78 74 73
79 72 67 59 50 40 33 29 28 28 30 32 33 34 34 34 35 37 41 47 51 55 57 58 59 57 55 53 46 39 32 30 32 32 32 34 34 37 44 42 45 48 39 38 43 40 40 45 43 41 42 41 37 30 29 30 30 34 41 47 54 63 68 69 73 77 74 70 73 76 80 82 76 73 76 75 74 77 80 82 80 78 81 80 75 78 81
86 75 68 60 51 43 34 30 28 29 31 33 35 37 37 36 37 37 39 43 48 53 56 58 59 58 57 55 49 41 34 30 32 33 34 34 33 39 44 37 42 49 39 36 47 45 40 42 42 42 43 41 38 34 32 32 31 30 32 39 48 58 66 69 73 80 79 76 78 78 78 82 79 76 77 74 72 74 78 83 82 80 77 72 73 80 79
93 82 71 61 52 45 37 31 29 30 32 35 37 40 40 39 40 38 38 41 45 50 55 56 58 58 57 56 51 44 37 33 33 34 35 34 32 36 38 33 38 51 46 46 61 63 51 43 41 43 44 43 41 38 34 33 33 30 30 34 41 50 61 69 70 71 72 72 72 72 76 83 84 81 77 74 74 73 73 78 80 77 74 71 72 76 76
97 88 76 64 53 47 41 33 30 31 33 36 40 43 43 42 42 40 40 41 43 47 53 55 57 58 56 56 53 47 41 36 36 37 36 36 33 32 34 33 35 45 51 57 66 66 58 50 45 42 44 44 42 39 37 36 35 33 31 32 38 45 55 66 69 67 67 67 66 70 78 82 83 84 79 73 73 72 73 79 79 75 76 75 71 69 71
99 94 82 69 57 50 43 35 31 32 34 38 42 44 45 45 45 43 41 43 45 47 50 52 54 56 57 57 53 48 43 39 39 39 38 38 37 36 36 37 35 37 44 52 57 59 62 62 54 47 46 45 42 41 40 38 37 35 31 30 34 38 45 56 63 65 65 65 64 67 75 79 79 82 83 77 74 73 73 76 78 77 78 76 73 72 70
100 97 87 76 64 54 46 37 33 34 36 39 42 45 46 46 48 46 42 44 47 49 52 54 56 58 59 59 55 48 44 40 39 40 41 41 41 40 39 41 39 32 30 39 49 56 65 67 56 49 49 48 45 44 41 40 41 37 32 29 29 34 42 49 53 58 61 62 62 62 69 76 76 78 82 81 78 76 72 70 72 76 76 71 71 72 68
101 99 91 82 74 64 51 39 35 35 37 40 42 45 47 48 50 49 46 46 48 50 54 57 59 60 60 58 55 49 43 41 40 41 43 44 44 41 40 42 43 35 28 38 53 61 68 66 52 44 49 52 51 48 45 44 43 39 37 34 30 33 43 47 47 51 54 58 61 61 63 68 70 71 76 79 78 77 74 70 70 72 73 72 71 68 63
100 100 94 84 80 76 59 42 37 37 38 41 44 45 47 50 52 52 51 50 50 52 56 58 60 61 61 59 56 50 44 41 41 41 44 46 48 46 43 41 40 34 31 41 54 57 55 53 47 46 52 56 56 54 50 47 44 42 41 39 35 34 39 45 48 51 52 56 62 63 61 61 63 66 72 77 78 76 75 74 71 70 70 69 69 67 60
96 100 99 87 81 83 70 48 39 39 39 42 45 45 47 50 52 53 54 54 55 56 58 61 62 63 64 63 56 49 45 42 41 44 46 46 47 46 43 39 34 31 33 40 45 43 42 47 54 56 58 60 60 57 53 50 48 47 44 40 37 34 34 42 50 50 50 55 61 65 63 60 64 71 70 71 77 76 72 71 70 69 67 65 68 69 63
91 96 101 94 82 81 77 59 44 41 41 42 45 47 48 50 53 54 55 57 59 60 61 65 66 66 66 63 55 48 45 43 43 47 48 49 48 43 37 35 32 28 29 34 37 41 50 59 66 69 68 68 65 58 53 51 51 50 48 43 38 32 29 35 44 47 49 53 58 63 65 64 69 74 70 67 74 79 75 69 65 65 67 66 69 73 67
85 91 100 99 86 79 77 67 52 45 44 43 45 48 50 51 54 55 55 58 61 62 65 67 68 69 67 61 53 48 46 46 47 48 51 52 49 41 35 37 37 30 27 31 37 47 61 68 72 76 75 70 66 59 54 52 52 52 51 47 42 33 26 26 32 39 48 54 54 57 65 70 71 71 70 69 72 78 81 75 65 61 64 65 66 68 65
79 85 96 101 92 82 77 68 56 47 45 44 45 49 51 52 55 56 56 58 60 63 66 66 67 70 67 60 53 48 47 48 48 49 53 52 48 41 34 29 28 24 23 29 40 52 64 68 68 69 68 64 60 55 51 51 54 55 53 49 45 37 30 26 26 30 38 48 54 56 60 69 72 70 69 72 73 77 84 83 72 60 57 57 57 62 65
77 83 94 101 96 87 76 68 59 49 45 44 45 48 52 53 56 58 57 57 61 65 66 68 70 71 66 58 53 51 51 50 50 53 52 44 39 38 29 15 11 15 21 32 45 55 60 62 62 62 62 61 58 54 53 53 55 57 55 52 47 41 36 31 29 28 30 38 51 57 59 66 72 72 71 72 77 83 87 86 80 69 59 53 52 61 71
73 85 94 100 100 91 77 68 63 53 46 45 46 48 52 54 56 58 58 59 63 66 67 70 73 71 65 58 55 56 57 57 61 63 53 36 26 23 18 11 12 19 30 41 52 58 59 60 61 62 63 63 62 60 58 57 57 56 55 52 48 43 40 38 37 34 30 31 41 51 61 70 74 74 74 74 75 81 85 85 84 78 68 57 52 58 69
68 83 92 98 101 96 81 70 65 57 48 46 47 49 52 54 57 59 60 61 64 67 70 72 72 70 65 60 59 60 62 65 70 67 55 48 39 21 11 15 22 28 38 49 55 57 57 57 58 59 61 62 63 61 59 58 59 57 53 50 47 44 42 41 40 37 32 31 37 45 56 68 72 72 74 75 74 75 79 84 88 86 77 65 59 65 72
80 85 89 95 100 100 89 73 64 59 52 47 47 49 51 54 58 59 61 64 65 68 71 73 73 70 67 64 63 63 64 66 65 53 47 57 56 31 15 23 31 37 44 50 52 51 50 52 54 55 57 58 58 57 56 56 56 56 54 50 47 47 47 45 44 45 42 38 38 43 50 58 66 69 71 74 75 72 72 81 87 86 82 75 71 77 81
89 91 91 94 98 101 95 78 65 60 55 50 48 49 51 55 59 60 63 65 67 69 72 74 73 71 70 69 66 64 64 58 43 26 22 34 37 26 22 30 37 42 47 48 49 50 49 50 51 50 50 53 53 53 53 53 53 53 51 49 46 45 43 40 41 48 52 46 40 44 51 54 57 65 69 72 74 72 72 79 82 79 79 77 74 79 84
90 96 96 96 97 101 99 85 70 61 57 52 49 51 53 56 59 62 64 66 68 71 74 74 73 72 72 70 66 64 61 45 22 10 11 19 23 23 28 36 42 47 50 49 50 53 53 54 54 49 47 48 48 48 49 49 50 50 48 45 45 44 42 40 40 43 51 54 49 50 57 54 49 58 68 70 72 73 76 80 79 75 74 73 73 77 80
89 97 97 99 99 100 101 94 79 67 60 55 53 54 56 58 61 63 65 68 70 72 75 75 75 75 73 70 67 65 52 28 11 10 14 19 25 28 33 41 45 48 50 51 51 53 55 56 55 52 49 48 46 45 45 45 44 45 44 42 43 43 41 43 47 46 48 53 52 51 55 51 44 49 62 69 72 77 80 80 77 72 70 69 69 73 76
88 97 98 100 100 99 101 99 89 75 66 62 59 58 59 61 64 65 66 70 72 74 76 77 77 77 74 71 68 60 37 15 11 16 17 19 26 32 38 45 48 48 49 51 51 51 51 50 51 52 52 50 46 43 43 44 42 39 36 36 37 36 33 38 47 48 45 51 55 51 47 43 39 44 55 64 71 78 81 82 78 73 70 68 67 69 72
87 97 97 100 100 99 101 101 95 83 73 68 65 64 66 67 67 67 69 72 75 76 78 80 80 77 74 72 66 47 22 8 10 17 20 25 31 36 41 46 49 50 50 49 48 43 36 32 36 42 46 48 49 48 46 44 41 36 31 28 28 26 25 30 38 39 38 46 53 50 43 37 35 39 48 56 65 73 79 81 81 78 74 71 68 69 71
88 94 95 100 101 99 100 101 98 89 80 73 69 69 70 70 69 72 75 77 79 80 81 82 81 77 75 72 57 32 12 7 12 17 24 33 40 44 47 48 49 50 47 43 38 29 20 16 17 21 28 34 39 41 37 31 29 29 24 19 17 18 18 21 27 31 33 36 40 43 44 42 39 40 45 50 56 63 70 74 77 77 75 73 72 71 72
94 93 94 99 100 100 101 100 99 95 89 85 83 80 78 77 78 81 83 83 84 84 84 83 79 77 76 64 40 18 10 12 16 21 29 37 42 48 51 48 46 43 37 30 25 19 15 14 11 9 11 14 18 22 19 13 14 16 14 11 11 10 11 16 24 31 35 37 39 43 45 45 45 47 49 53 56 57 60 63 66 67 67 67 68 68 67
98 95 91 94 97 100 101 99 100 100 96 95 94 92 93 94 93 93 93 91 89 88 87 84 79 77 69 45 20 12 14 16 19 27 34 39 42 46 48 44 37 33 28 23 18 15 12 11 12 13 9 6 11 15 12 8 10 11 11 12 12 10 11 14 19 27 34 38 42 45 45 46 49 53 55 58 60 60 57 55 55 55 56 57 58 58 58
95 98 94 94 94 97 100 100 100 100 100 100 99 98 101 102 100 100 100 96 94 91 87 84 81 73 52 25 12 14 19 20 25 32 37 41 43 43 39 33 26 23 21 17 12 9 6 6 12 15 10 6 10 13 12 15 16 15 16 18 17 16 17 17 18 22 25 27 32 38 44 48 51 54 57 60 61 61 60 58 55 54 53 53 52 52 51
79 94 99 97 93 94 98 99 99 99 101 101 99 101 103 101 100 101 99 97 96 91 85 86 82 60 32 16 15 20 22 24 30 36 39 42 41 35 29 24 20 17 14 10 7 7 6 7 9 11 10 11 14 14 14 16 16 15 16 17 16 17 18 18 20 19 17 19 22 24 34 48 54 53 56 59 60 62 63 64 65 65 62 61 59 57 53
60 81 93 94 92 94 96 96 97 98 100 100 101 103 102 99 98 97 94 95 95 90 89 88 72 41 20 17 20 23 26 30 35 41 43 40 33 27 22 17 13 11 8 7 8 8 9 10 12 13 13 13 13 16 19 21 22 24 24 21 20 21 20 20 23 24 23 22 16 17 44 74 78 67 62 63 68 76 80 79 80 80 76 72 69 65 61
43 63 78 83 87 93 96 97 98 97 97 100 102 100 97 96 94 92 92 92 91 91 92 78 47 22 18 24 25 26 30 35 40 43 41 33 25 21 17 12 9 8 8 9 11 11 12 14 14 13 14 17 22 29 31 28 29 33 36 36 33 29 31 40 44 41 35 26 12 19 58 93 94 81 74 70 70 79 85 83 82 83 83 81 79 74 71
35 48 58 67 81 95 99 99 100 100 100 100 97 94 92 92 91 91 92 90 90 94 85 55 24 16 23 28 30 31 34 40 44 41 33 27 23 18 12 10 10 10 11 13 13 12 14 14 12 15 24 33 40 42 36 32 33 35 40 47 44 41 55 75 75 59 47 38 24 23 49 78 83 78 78 76 71 74 80 80 81 81 79 76 71 66 66
34 40 47 63 86 101 101 99 100 100 100 98 94 90 90 93 94 92 89 89 94 90 65 31 16 22 29 30 33 38 40 43 42 34 27 24 20 14 10 11 13 13 14 14 14 14 16 14 16 28 40 46 49 43 34 36 43 41 38 42 42 44 61 75 65 46 40 41 36 28 36 57 65 62 67 75 74 71 71 72 73 74 74 73 72 71 76
33 39 51 73 94 102 100 100 101 99 98 99 97 93 93 95 95 90 90 96 93 70 37 17 18 27 31 33 38 41 43 41 35 28 24 20 14 12 12 14 15 15 14 14 14 16 17 17 22 37 46 47 46 42 38 46 54 48 40 39 37 39 45 43 34 34 42 47 44 35 34 44 48 47 56 67 64 59 62 66 69 75 81 87 92 93 95
59 60 66 79 91 98 101 102 101 100 101 100 99 97 96 94 93 95 99 94 69 38 20 21 27 31 34 38 41 42 40 35 29 24 20 15 13 16 17 15 16 16 15 16 17 17 18 19 23 33 42 44 45 45 50 60 62 54 49 48 45 45 45 40 44 66 82 80 71 62 61 67 68 62 61 64 64 71 81 85 86 90 94 98 100 100 100
92 88 82 84 93 99 102 100 100 101 101 99 100 100 97 95 99 101 91 64 34 20 23 28 30 32 37 42 45 41 34 30 30 27 18 14 18 23 20 16 17 19 19 20 20 19 18 20 23 29 37 45 49 51 54 57 55 52 53 54 51 52 56 58 67 84 91 87 85 87 90 93 90 81 76 77 83 91 96 96 97 100 100 99 100 100 100
101 98 92 94 99 101 100 100 101 101 99 100 102 100 98 102 101 84 56 29 19 24 30 31 33 38 42 46 48 41 30 29 34 32 23 19 21 22 21 18 19 22 23 22 22 21 21 24 29 34 39 48 55 58 58 55 54 57 60 61 59 60 63 68 74 79 79 83 93 98 98 95 92 90 91 94 96 96 94 95 100 101 98 95 96 97 96
102 98 95 97 99 101 101 100 100 100 100 101 100 100 102 100 80 49 26 19 25 31 33 34 41 46 47 47 45 36 25 23 23 22 24 24 21 20 22 22 20 22 23 23 25 25 24 28 35 38 41 49 56 59 59 58 57 59 63 67 70 70 68 70 75 77 79 86 92 93 92 92 91 92 95 96 98 99 99 99 101 99 94 88 83 77 72
100 99 99 98 99 101 102 100 100 101 100 100 101 102 96 75 47 27 21 26 34 38 38 42 51 57 58 56 48 35 24 21 20 22 27 28 23 22 23 21 20 21 22 22 24 24 23 27 32 33 35 42 48 50 53 56 58 61 68 74 76 74 71 72 75 76 77 79 81 82 85 87 88 90 94 96 96 96 92 88 84 77 69 61 52 43 37
99 100 101 99 99 101 101 100 100 100 99 101 102 95 73 45 29 27 28 32 40 46 47 52 59 60 55 48 37 27 26 30 32 31 28 25 23 22 20 18 18 19 19 18 19 20 21 23 26 27 29 33 37 39 42 46 50 57 66 71 71 69 68 68 68 68 68 69 69 71 73 75 76 76 74 70 66 61 55 50 45 39 33 29 25 22 19
99 100 101 99 101 101 99 100 101 100 100 102 97 78 52 35 33 34 33 38 48 54 55 58 59 54 47 37 25 20 27 35 37 31 24 21 22 20 16 15 16 15 15 14 15 18 21 21 20 23 25 27 29 32 33 34 37 41 45 47 47 45 44 43 43 44 46 47 48 49 49 48 46 43 38 34 31 28 25 23 20 18 17 16 14 13 12
98 101 101 99 100 100 99 100 101 99 100 101 91 69 48 38 39 41 42 47 54 57 58 57 51 43 39 33 23 20 27 38 45 43 30 20 19 17 14 14 13 11 11 12 12 15 18 16 15 19 22 21 22 24 24 24 26 25 25 25 25 24 24 25 24 24 26 27 28 28 27 24 22 20 18 17 16 14 13 13 12 11 11 11 10 10 10
99 101 100 99 101 101 100 100 100 99 101 99 85 64 48 43 45 49 52 54 55 55 56 52 40 30 26 25 24 25 28 36 49 51 34 18 15 15 13 11 10 9 10 10 8 9 12 12 12 18 21 18 16 16 16 16 16 16 16 16 16 15 16 16 15 15 16 16 15 15 15 14 13 13 12 11 11 10 10 10 10 10 10 10 11 11 12
100 100 99 100 101 100 99 101 100 100 101 97 82 64 53 50 52 55 56 56 55 56 55 47 34 25 24 27 31 31 27 26 31 32 22 15 14 13 10 9 9 8 7 7 6 6 9 8 9 14 18 16 11 10 11 12 11 11 12 11 11 11 12 12 12 12 12 12 12 11 11 11 10 10 11 11 10 10 10 10 11 12 12 13 14 14 15
99 100 100 100 100 99 100 101 100 100 100 96 83 69 58 52 51 52 54 54 56 57 53 43 32 23 21 25 28 28 26 23 21 18 16 16 14 11 9 9 8 6 6 6 5 5 6 6 6 9 13 13 10 8 9 9 8 9 10 9 9 10 10 9 10 10 9 9 10 9 9 9 9 10 10 10 10 11 11 11 12 13 14 15 16 17 18
100 100 100 100 100 100 100 99 98 100 102 96 83 70 59 52 49 49 51 53 58 58 50 39 29 22 19 22 26 26 24 21 18 17 18 17 13 10 10 9 7 7 8 6 5 5 5 5 6 6 6 6 7 8 9 7 6 7 8 8 8 9 8 8 9 8 8 8 8 8 9 10 9 10 11 11 11 12 12 12 14 16 17 18 20 21 21
100 100 100 100 99 97 97 98 98 98 100 97 85 73 62 52 47 48 50 55 60 58 45 31 23 20 20 24 27 26 23 19 18 18 20 18 14 12 11 9 8 9 8 7 7 8 6 5 6 6 4 5 7 8 7 5 5 6 7 7 7 7 7 7 7 7 7 8 8 9 10 10 10 11 12 13 14 15 16 17 19 21 21 22 23 22 22
101 102 100 100 99 97 96 98 98 99 101 99 87 69 54 45 44 51 58 63 62 53 38 26 20 20 22 26 27 25 22 20 19 19 20 19 16 13 11 10 10 11 10 10 10 9 8 8 7 6 5 7 8 8 7 7 7 7 7 8 8 8 8 8 8 9 10 11 11 12 13 13 14 15 16 17 19 21 21 22 24 24 23 23 23 21 21
101 104 100 100 102 100 98 100 101 98 92 83 68 52 41 40 47 57 65 68 61 45 30 22 20 20 22 27 27 24 22 20 20 20 21 20 17 15 13 12 12 12 12 12 12 11 11 11 10 9 10 13 12 10 9 10 10 10 10 11 11 11 12 12 13 14 15 15 16 17 18 18 19 20 21 22 24 24 23 24 24 23 23 23 22 21 21
102 103 100 101 102 100 100 102 98 84 67 54 47 43 40 43 51 59 64 64 55 39 25 21 20 19 23 27 27 24 22 21 21 22 22 20 18 17 15 13 14 14 14 14 14 14 14 14 13 13 15 16 15 13 13 14 14 14 14 14 15 15 15 16 17 18 19 20 20 21 22 22 23 24 25 25 25 25 24 24 24 23 23 23 22 21 21
104 102 99 101 101 99 100 98 87 69 54 46 44 41 38 42 52 61 64 60 49 33 23 21 19 18 23 27 27 24 23 22 23 24 23 21 20 19 17 15 16 16 15 15 16 16 17 17 17 16 16 17 17 17 17 17 17 17 17 17 18 18 19 19 20 20 21 22 23 24 25 25 26 26 27 27 26 25 24 23 23 23 23 23 22 22 22
103 100 99 100 98 95 93 87 75 62 54 47 39 33 35 44 57 64 62 54 42 30 23 21 19 19 22 27 26 24 22 23 24 26 25 22 21 21 19 17 17 17 17 18 18 17 17 17 17 17 17 18 17 18 18 18 18 19 19 19 19 20 21 22 22 23 24 25 26 27 27 27 27 27 26 25 25 24 24 24 24 24 23 22 22 22 23
101 101 101 98 91 85 81 75 66 56 48 39 30 29 38 51 60 62 57 49 38 29 22 20 19 19 21 25 26 24 22 22 24 25 24 22 23 22 21 19 19 18 18 18 18 17 17 17 17 17 18 19 19 19 20 19 19 18 18 18 19 20 22 23 24 25 26 26 27 27 27 27 26 25 24 24 25 26 26 25 24 23 23 23 24 25 26
101 101 99 94 84 74 67 62 55 45 38 32 28 29 38 49 56 57 53 46 36 27 22 20 19 19 20 21 23 23 21 21 21 22 21 20 20 20 20 19 19 18 17 17 17 17 16 16 16 17 17 18 19 19 19 20 20 19 19 19 21 22 24 25 26 27 27 28 28 28 26 25 24 24 24 25 26 26 25 24 24 24 24 25 27 29 30
Wind_Speed
40 39 39 39 39 39 39 39 39 38 38 36 34 32 31 30 28 28 27 27 25 23 21 19 17 16 14 12 10 10 9 9 10 10 11 11 12 12 13 12 11 11 11 11 10 10 10 10 9 9 9 9 9 9 9 9 8 8 7 7 6 5 4 4 3 3 4 4 3 4 5 4 3 3 4 5 5 5 6 7 8 10 10 10 10 10 9
41 40 40 40 40 40 39 39 39 39 38 36 34 32 31 30 29 27 27 27 27 25 23 21 19 17 15 13 12 11 11 10 10 10 11 12 13 13 13 13 13 13 14 13 12 12 12 11 11 11 10 10 10 9 10 11 9 8 8 7 7 6 5 5 4 3 4 4 3 3 3 3 2 3 3 4 4 4 5 6 7 9 9 9 10 8 8
43 41 41 41 41 41 40 40 39 39 38 37 35 33 31 30 29 27 27 27 27 26 24 22 20 18 16 14 13 12 12 11 10 10 11 12 13 13 14 14 13 14 15 14 13 13 14 13 13 12 12 12 11 10 10 11 10 9 9 8 8 8 7 6 5 4 5 4 4 3 1 2 2 3 3 4 4 3 4 4 6 7 7 8 8 8 8
45 43 42 42 42 42 41 40 40 39 38 37 35 33 31 30 28 27 27 27 27 26 25 24 21 19 17 15 14 13 12 12 10 11 12 12 14 14 14 15 14 13 14 14 13 13 15 15 14 14 13 13 12 11 10 10 10 9 9 9 9 9 8 8 7 6 7 6 5 4 1 2 2 2 3 4 4 3 4 5 5 6 7 8 8 8 10
46 45 43 43 43 43 42 41 40 39 38 37 35 33 31 30 28 27 26 26 26 26 26 24 22 20 19 16 14 14 13 13 12 12 12 13 14 15 15 15 15 14 14 14 13 14 15 16 16 15 14 13 13 12 11 11 11 10 9 9 10 10 10 10 9 8 8 8 7 5 3 1 2 3 4 4 4 3 2 4 5 5 6 7 8 8 10
45 47 45 44 44 44 42 41 40 39 38 37 35 33 31 30 28 27 26 25 25 26 26 25 23 21 19 17 15 14 13 13 13 13 14 14 14 15 15 15 15 16 16 15 15 15 15 16 17 16 15 15 14 13 13 13 12 12 10 9 10 11 11 11 11 10 9 9 8 8 6 4 3 4 4 4 5 4 2 3 5 4 4 7 8 8 8
43 48 48 46 45 45 43 42 41 39 38 37 35 33 31 30 28 27 26 25 25 25 25 24 22 21 19 17 15 15 14 14 15 14 15 15 15 15 15 15 15 17 17 16 16 16 16 17 17 17 17 16 16 15 14 14 13 13 11 10 10 11 11 11 12 12 11 10 10 9 9 7 5 5 5 5 5 5 4 4 6 5 4 5 7 7 8
40 46 49 47 46 46 44 43 41 40 39 37 35 33 32 30 28 27 26 25 25 25 24 23 22 20 19 18 16 15 15 15 15 16 15 16 16 16 16 16 16 17 18 16 16 16 16 17 18 18 17 17 17 16 16 15 14 14 12 10 9 10 10 11 11 12 12 11 11 11 11 10 9 7 7 7 7 7 7 6 7 7 5 5 6 8 8
38 43 49 48 46 47 45 43 42 40 39 37 35 34 32 30 28 27 25 25 25 24 24 23 21 20 19 18 17 16 16 16 16 16 16 16 16 16 16 17 17 18 18 17 16 18 19 19 19 18 18 18 18 17 16 16 15 14 13 11 10 10 10 10 11 12 12 12 12 12 12 12 11 10 9 8 8 9 9 8 9 10 9 7 7 9 10
38 39 47 49 47 46 46 44 42 41 39 37 35 34 32 30 28 27 25 25 24 24 23 22 21 20 20 19 17 16 17 16 16 16 16 16 17 17 17 18 18 19 19 18 18 19 20 19 18 17 18 18 18 17 17 17 16 15 13 12 10 10 10 10 11 12 13 13 13 14 14 14 12 10 9 9 9 9 11 11 10 11 10 9 9 10 11
41 37 43 48 47 46 46 44 43 41 39 37 36 34 32 30 29 27 25 25 24 24 23 22 21 21 20 19 17 17 17 17 17 17 16 16 17 18 18 19 19 19 19 19 19 19 18 17 16 17 18 18 18 18 18 18 17 16 14 12 11 11 10 11 12 13 13 13 14 14 15 16 14 11 10 10 9 9 11 12 11 11 12 12 11 11 12
44 36 39 46 47 46 45 44 43 41 39 38 36 35 33 31 29 27 26 25 24 23 22 22 21 21 20 18 17 18 18 18 17 17 17 17 17 19 19 18 18 18 19 19 18 18 17 16 16 17 18 18 18 18 18 18 17 16 15 14 12 12 11 11 12 13 13 13 14 15 17 17 15 13 11 11 10 10 11 12 13 13 13 14 13 13 14
46 38 37 43 46 46 45 45 43 42 40 38 37 35 33 31 29 27 26 25 24 23 23 22 21 21 19 18 18 19 18 18 17 17 17 17 17 18 19 19 18 18 18 18 17 17 16 16 17 17 18 18 18 18 18 18 17 17 15 14 13 13 12 12 12 13 14 14 14 16 18 17 16 15 13 12 11 11 11 13 14 14 15 15 15 15 15
47 40 37 41 46 46 46 45 43 42 40 38 37 35 34 31 29 27 26 25 24 23 22 22 21 20 19 18 19 19 18 18 17 17 17 18 17 17 18 20 19 18 17 17 16 15 15 15 15 16 16 16 17 17 17 17 17 16 15 14 14 14 13 13 13 13 14 15 15 17 18 18 17 17 16 14 13 12 12 13 15 16 16 16 16 15 15
46 42 38 39 44 46 46 45 44 42 40 38 37 36 34 31 29 28 26 25 24 23 22 22 21 19 19 19 19 18 18 17 15 15 16 16 17 17 18 19 18 17 16 16 15 14 14 14 14 14 14 14 15 15 16 16 16 16 16 15 13 13 13 13 13 13 14 15 16 17 18 18 17 18 17 16 15 15 14 14 15 16 17 17 17 17 16
44 42 39 38 41 45 46 45 43 42 40 38 37 36 34 32 30 28 27 26 24 23 23 22 20 19 20 20 19 18 18 16 14 13 13 13 15 16 17 17 17 16 16 15 15 15 14 14 13 13 13 13 14 14 14 15 16 16 15 15 14 13 13 13 14 14 14 14 16 18 19 19 18 19 19 18 17 17 17 16 16 16 16 17 17 17 16
41 41 39 38 39 42 45 45 43 42 40 39 37 36 34 32 30 28 27 26 25 24 23 21 20 20 21 21 20 18 17 15 14 13 12 12 14 15 16 16 16 15 15 14 14 15 15 14 14 14 14 14 14 14 14 14 15 15 14 14 13 12 12 12 13 13 13 14 16 17 19 20 19 19 20 20 19 19 20 19 17 17 17 18 18 16 16
40 39 40 40 39 40 43 44 43 42 41 39 38 36 34 32 30 29 28 26 25 24 23 21 21 21 21 21 20 18 16 15 14 14 14 14 15 15 15 15 15 14 14 14 14 14 14 14 14 14 15 15 15 14 14 14 14 14 13 13 13 12 12 12 12 12 13 14 15 17 18 20 21 20 21 21 21 21 22 21 19 18 18 19 20 19 17
39 38 39 40 38 38 41 44 44 42 41 40 38 37 35 33 31 30 28 27 26 24 23 22 23 22 21 21 20 19 17 15 15 15 14 14 15 14 14 14 14 13 13 13 12 13 13 14 14 14 15 15 15 15 15 14 14 13 13 13 13 13 12 12 12 12 13 13 15 16 18 19 21 21 21 21 22 22 23 22 21 19 19 20 20 21 19
39 38 38 38 37 37 39 43 44 43 42 40 39 37 35 34 32 30 29 27 25 24 23 23 23 22 21 21 20 18 17 15 14 14 14 14 14 14 13 13 13 13 12 13 13 13 14 14 15 15 15 15 15 16 16 16 15 14 14 13 13 13 12 12 12 13 13 14 16 17 18 19 20 21 21 21 22 22 22 22 22 21 21 21 21 22 22
39 37 37 36 35 36 38 41 43 43 42 41 39 37 35 34 32 31 29 27 25 24 24 24 23 22 21 21 20 18 16 15 14 14 14 14 14 14 13 13 13 13 13 13 13 14 14 14 15 15 16 16 16 16 16 16 16 16 15 15 14 14 14 13 13 13 13 14 16 17 18 19 20 20 20 21 21 21 21 21 22 22 22 23 23 24 24
40 38 36 34 33 34 36 39 42 43 42 41 39 37 36 34 33 31 29 27 25 25 25 24 23 22 21 21 19 18 17 16 15 14 14 14 14 13 13 13 13 13 13 13 13 13 14 14 14 15 15 16 16 16 17 17 17 17 17 17 17 16 16 15 14 14 15 15 16 17 18 19 19 19 20 20 21 21 21 21 21 21 21 23 24 25 25
40 40 39 36 34 34 34 37 40 41 41 40 38 37 36 34 33 31 28 27 26 26 25 24 23 22 22 21 19 18 17 16 15 14 14 13 13 13 13 13 13 13 13 13 14 14 14 14 14 14 15 15 16 16 17 18 17 17 18 19 19 18 17 17 16 15 15 16 17 17 17 18 18 18 19 19 20 21 21 22 21 21 21 21 22 23 23
38 39 41 40 37 35 34 36 38 39 39 38 37 36 35 34 33 31 29 28 27 26 25 24 23 22 21 20 19 18 17 15 14 14 14 13 13 12 13 13 13 13 13 13 13 13 13 13 13 14 14 15 15 15 16 17 17 16 17 17 18 17 17 16 15 14 15 16 16 16 17 17 17 17 18 18 18 19 20 21 21 21 21 21 21 21 21
37 36 39 41 39 37 36 37 38 38 38 37 36 35 35 34 32 31 29 28 27 26 25 24 23 22 21 20 19 18 16 14 13 14 13 12 12 12 12 12 12 12 12 12 12 12 13 12 12 12 13 14 14 14 15 15 15 15 16 16 15 16 16 15 15 15 15 15 14 15 16 16 15 16 16 16 17 17 18 18 19 20 20 21 22 22 22
38 35 35 38 40 40 39 37 38 38 38 37 36 35 34 33 31 30 29 28 27 27 25 24 23 22 21 20 19 18 15 14 13 13 13 12 12 12 12 12 11 11 11 11 11 12 12 11 10 11 11 12 12 12 13 12 12 13 14 13 13 13 14 14 14 14 15 15 14 14 13 13 13 14 14 15 15 15 16 16 17 18 19 19 20 21 21
40 37 33 33 37 42 42 40 39 39 38 38 37 37 35 33 32 31 30 29 27 26 25 23 22 22 22 20 19 17 15 14 13 13 13 12 12 11 11 11 10 10 10 10 10 10 10 10 10 10 9 10 10 10 10 10 10 11 12 11 11 11 12 12 12 13 13 13 13 12 10 10 11 13 14 14 13 13 14 15 15 15 16 16 17 18 19
41 39 35 32 33 40 44 43 41 40 40 39 38 37 35 34 33 31 30 29 28 26 24 22 22 23 23 21 19 17 15 13 13 13 12 12 11 11 10 9 8 9 9 9 9 9 8 8 8 7 7 7 7 7 7 8 8 9 9 9 8 8 9 9 9 10 11 12 12 12 11 9 9 11 12 12 11 10 10 11 11 12 12 13 13 14 15
41 40 38 33 32 37 42 42 41 41 41 41 39 38 37 36 34 32 31 30 28 26 25 25 24 24 23 20 18 16 14 13 14 13 12 11 11 10 8 7 7 8 8 7 7 7 7 6 6 5 5 5 5 5 5 5 6 8 8 8 8 7 7 6 7 8 9 10 11 14 15 12 9 8 9 10 10 9 8 8 9 9 10 11 12 12 13
40 40 38 35 33 36 41 43 41 40 40 40 40 40 39 37 34 33 32 30 28 27 27 28 26 24 22 20 18 16 14 14 14 13 12 11 10 9 8 7 8 8 7 7 7 7 6 5 4 4 4 3 2 2 2 2 3 5 7 9 9 8 7 6 6 5 5 6 10 14 16 13 10 7 7 7 8 8 8 8 7 7 8 9 11 11 12
38 38 37 36 34 35 40 44 45 44 42 41 41 40 39 36 34 33 32 30 29 29 30 28 26 24 22 20 18 15 14 14 14 12 12 11 10 9 9 9 8 7 7 7 7 6 5 4 3 3 4 3 2 2 2 2 1 2 5 6 7 7 7 5 5 4 4 6 8 11 14 13 10 8 6 5 5 6 6 6 4 3 4 5 7 8 10
37 37 37 36 35 35 38 41 44 44 43 42 40 38 37 35 34 34 32 31 31 32 31 29 26 24 22 20 17 16 15 14 13 12 12 11 10 10 10 9 7 7 7 7 5 4 3 3 3 4 5 3 2 1 2 2 2 4 5 5 4 4 4 3 3 4 6 7 6 8 10 10 9 8 7 6 5 2 0 1 3 4 4 5 7 8 9
37 37 37 36 35 36 37 39 39 40 40 39 38 36 35 35 34 34 33 33 34 33 31 28 25 23 21 19 17 16 16 14 13 13 12 11 10 10 9 8 7 7 6 5 3 3 3 3 5 6 5 3 3 3 4 4 4 5 5 4 4 4 4 3 3 6 9 8 5 5 6 5 5 6 6 5 2 2 4 5 6 7 6 6 7 8 7
35 34 35 35 35 37 39 39 38 38 38 37 37 36 35 34 35 35 35 36 35 33 30 27 25 23 21 18 17 17 16 15 13 12 12 11 10 9 8 8 8 6 5 4 3 4 4 4 5 6 5 4 3 3 4 4 5 6 6 5 6 7 6 6 6 8 8 5 4 6 7 5 4 5 6 5 4 3 2 1 3 5 6 6 5 5 4
32 31 33 36 37 38 38 38 38 37 37 37 36 36 36 36 36 37 37 36 34 31 29 26 24 22 20 18 17 17 17 15 13 12 12 12 11 10 10 9 8 6 5 5 5 5 5 5 5 5 5 4 4 4 5 5 5 5 7 7 7 7 8 8 8 8 7 7 7 8 7 6 6 6 6 5 5 4 3 2 1 3 4 4 3 3 4
30 29 31 35 38 38 37 37 38 37 37 38 37 37 37 38 38 38 37 34 32 30 27 26 24 21 20 18 17 17 17 15 14 13 13 12 12 11 11 10 9 7 7 7 7 6 5 5 5 5 5 5 6 5 5 5 4 4 6 7 8 7 7 8 8 7 7 7 8 7 6 6 6 6 5 4 4 4 4 3 2 2 3 1 1 1 1
31 31 31 34 38 39 37 37 38 39 38 39 38 38 39 40 39 37 35 33 30 29 27 25 24 22 20 19 18 17 17 16 15 14 14 13 13 13 12 11 10 9 8 8 8 8 7 7 7 7 7 7 7 7 6 6 6 6 7 7 6 7 7 7 8 8 8 8 8 8 7 7 6 5 5 5 5 4 4 4 3 2 1 1 2 4 5
33 34 34 34 37 39 39 39 40 40 40 40 39 40 40 40 38 36 34 32 30 29 27 26 24 24 23 22 21 20 18 16 16 16 15 15 15 14 13 12 12 10 9 9 9 9 9 9 9 9 9 10 10 9 8 9 9 10 9 9 9 10 10 10 10 10 10 10 10 10 9 9 9 8 8 8 7 6 6 5 4 4 4 4 5 5 5
33 36 37 36 37 38 39 40 42 42 41 41 41 41 40 39 38 36 34 32 31 30 28 27 27 26 23 22 22 21 20 18 17 17 17 17 16 15 14 13 12 11 10 9 10 10 10 10 10 11 11 12 11 11 11 11 11 11 11 11 11 12 13 13 12 12 12 12 12 11 11 10 10 9 8 8 7 6 6 6 5 5 4 4 4 4 5
34 38 40 40 39 39 39 41 43 42 42 42 42 41 41 40 37 36 34 33 32 31 30 29 28 26 23 22 22 22 22 20 18 18 18 19 17 15 14 14 13 12 11 10 10 10 10 10 11 11 12 12 12 12 12 11 12 12 13 13 13 14 14 14 14 14 13 12 12 11 10 9 9 8 7 6 5 5 4 4 3 3 3 4 5 6 8
35 40 42 40 39 39 40 42 43 42 43 44 43 42 41 39 37 35 34 33 32 32 31 30 29 27 26 25 24 24 24 23 21 20 20 20 19 17 15 14 13 12 11 11 11 10 10 10 10 11 11 12 12 12 12 12 12 12 13 13 14 14 14 13 13 13 12 10 10 9 8 8 7 6 5 4 3 3 3 4 5 6 7 8 9 10 11
34 39 41 40 39 40 41 42 43 43 43 44 43 42 41 39 37 36 35 33 32 32 32 31 29 28 26 25 24 25 26 25 23 22 22 21 19 17 16 15 14 13 12 12 12 11 10 10 10 10 11 11 11 11 11 11 11 12 12 12 12 12 11 11 10 9 8 7 6 5 5 4 4 3 3 3 4 5 7 8 9 10 11 12 13 14 15
32 38 41 41 40 41 41 42 43 43 43 44 43 43 41 40 38 36 34 33 33 33 32 30 29 28 28 27 26 26 26 25 24 23 22 21 19 18 16 16 15 14 13 13 12 12 11 11 10 10 10 10 10 10 10 10 10 10 10 10 9 9 8 7 6 5 5 4 3 3 2 3 3 4 5 6 7 9 10 11 12 13 14 15 15 16 17
32 37 41 41 40 40 41 41 43 43 43 42 42 41 39 37 35 34 33 32 32 32 31 30 29 28 28 28 27 27 26 26 26 24 22 21 20 19 17 17 16 15 14 13 13 12 12 11 10 10 10 9 9 9 9 8 8 8 8 8 7 6 5 4 3 3 2 1 1 2 3 4 5 6 7 9 10 11 12 13 14 14 15 16 16 17 18
33 35 39 41 41 41 40 40 42 43 42 41 40 39 36 34 33 32 31 32 32 31 31 30 29 29 28 28 27 27 26 26 26 25 24 22 21 19 18 17 16 15 14 14 13 13 12 11 11 11 10 9 9 8 8 7 7 6 6 5 5 4 3 2 1 1 1 1 2 3 5 6 7 8 9 10 11 12 13 14 14 15 16 17 18 19 20
32 33 36 39 41 40 39 39 40 41 41 40 39 38 36 34 34 33 33 33 33 32 32 31 30 29 29 28 28 27 27 27 27 26 25 24 22 20 18 17 16 15 15 14 13 13 12 12 12 11 10 10 9 8 8 7 6 5 5 4 3 3 2 1 1 1 2 2 3 4 6 7 8 9 10 11 12 13 14 15 16 17 18 19 20 21 22
31 32 34 36 37 37 36 36 37 39 39 39 39 37 35 35 34 34 34 34 34 33 33 32 31 30 30 29 28 28 28 28 27 26 25 24 23 21 19 18 16 15 15 14 14 14 13 12 12 12 11 11 10 9 8 7 6 5 5 4 4 3 3 3 3 3 4 4 5 6 7 8 9 10 12 13 14 15 15 16 17 18 19 20 21 22 24
31 32 33 33 33 34 34 35 37 38 38 38 38 36 34 34 34 34 35 35 34 33 33 33 32 30 30 30 29 29 29 28 27 26 25 23 22 20 19 18 17 16 15 14 14 14 13 12 12 12 11 10 10 9 8 8 7 6 6 6 5 5 4 5 5 5 5 6 7 8 9 10 11 12 13 14 15 16 17 18 19 20 21 22 23 24 26
32 32 32 31 31 32 34 36 38 39 38 37 36 34 33 33 34 35 35 35 34 34 34 33 32 32 31 31 31 30 29 28 27 25 24 22 21 20 19 18 17 16 15 14 13 12 13 12 12 11 11 10 9 8 7 7 6 6 6 6 6 5 5 6 6 7 8 9 10 11 12 13 13 14 15 16 17 18 18 19 20 22 23 24 25 27 28
33 33 32 30 31 33 35 37 39 39 37 36 34 33 33 33 34 35 35 35 34 34 34 33 33 32 32 31 31 31 30 28 27 26 24 23 22 21 20 18 17 16 15 14 13 12 12 12 11 11 10 9 8 8 7 6 6 6 6 6 6 7 7 8 8 9 10 11 12 13 14 15 15 16 17 17 18 19 20 21 22 23 25 26 27 28 29
34 33 32 30 30 32 35 37 38 37 36 34 33 32 33 34 34 35 35 34 33 34 34 34 33 33 32 32 31 30 29 28 27 26 25 23 22 21 20 19 17 16 16 15 14 13 12 10 10 9 9 9 9 8 7 7 7 7 7 7 7 8 8 9 10 11 12 13 14 15 15 16 17 17 18 19 20 21 22 23 24 25 27 28 29 30 31
34 34 32 30 31 32 34 36 37 36 35 33 32 32 33 34 34 35 34 34 33 33 33 32 32 32 32 32 30 29 27 27 26 25 24 23 22 22 22 20 19 18 17 16 16 14 13 11 11 10 9 9 9 8 8 8 8 8 8 8 8 9 10 11 12 13 14 14 15 15 16 17 18 19 19 20 21 22 23 24 25 27 28 29 30 31 32
Wind_Direction
216 217 218 219 220 220 220 221 222 222 223 223 222 222 223 224 225 226 226 227 230 235 240 245 251 257 263 269 272 267 255 244 239 238 239 244 248 252 256 259 261 263 264 265 266 267 268 268 267 269 272 273 273 275 278 279 281 280 279 277 271 270 274 285 303 306 310 335 5 25 36 47 59 70 76 79 83 92 108 122 128 132 137 141 147 158 165
215 216 218 219 219 219 220 220 221 222 222 222 222 222 223 224 225 226 226 227 229 233 238 243 249 255 261 268 272 271 262 250 242 241 240 242 247 251 254 256 259 263 265 266 265 263 262 263 264 264 266 269 270 271 273 275 277 275 275 273 264 258 257 259 269 280 286 308 339 4 29 44 66 82 88 94 93 92 100 114 131 139 143 147 152 160 170
215 216 217 218 219 219 219 219 219 220 221 221 221 222 222 224 225 226 226 227 229 233 236 241 246 252 258 265 271 271 266 256 246 243 241 242 246 251 254 256 258 262 266 268 268 267 263 261 262 261 261 262 264 266 269 273 276 273 269 268 261 251 245 245 249 258 264 275 297 309 12 64 73 91 112 119 108 110 125 131 137 142 147 156 156 151 155
215 215 216 217 218 218 218 218 218 219 220 220 220 221 222 224 225 226 226 227 229 232 236 240 244 249 255 261 268 270 268 261 252 246 243 242 245 250 254 257 258 261 266 268 268 267 266 264 261 258 256 255 255 257 262 268 273 273 266 262 259 251 241 239 240 248 254 255 261 273 294 100 116 127 138 138 127 135 157 155 149 147 152 161 162 151 143
215 215 216 216 217 218 217 217 217 218 219 219 220 221 222 223 225 225 226 227 229 232 235 239 243 248 252 257 263 267 267 262 255 249 246 245 246 250 253 256 258 260 262 263 264 265 267 266 262 256 250 248 248 249 254 260 264 267 263 257 256 251 243 239 238 243 253 255 250 250 248 206 174 166 164 161 156 163 177 167 160 157 158 161 163 160 147
216 215 215 215 216 217 216 216 216 217 218 218 219 220 221 222 224 225 225 226 228 231 234 238 242 246 250 254 260 263 263 259 254 251 249 249 249 252 255 257 258 260 260 262 264 264 265 264 261 255 247 244 245 247 251 255 259 262 261 256 253 251 246 242 241 242 246 250 249 243 236 227 212 193 185 182 180 185 207 203 179 161 149 158 166 170 160
218 216 215 215 216 216 215 214 214 215 216 217 217 219 220 221 223 224 224 225 227 230 233 236 239 243 247 253 258 260 258 255 253 251 251 253 253 255 259 262 262 263 264 265 264 263 262 261 259 254 247 245 245 248 252 256 259 261 263 259 254 251 247 243 243 244 244 247 250 246 237 229 227 217 201 198 201 193 192 210 205 182 153 160 171 176 171
219 217 215 215 215 215 214 213 213 213 214 215 216 218 219 220 222 223 223 224 226 228 231 234 236 240 245 252 257 258 257 254 251 251 252 255 258 259 262 264 265 266 266 265 261 259 258 259 259 255 249 246 245 249 254 257 258 260 262 261 256 252 250 245 243 244 244 245 248 248 243 233 228 226 216 208 210 202 191 197 206 201 189 177 180 186 184
219 218 216 215 215 215 213 212 212 212 212 213 214 216 218 219 221 221 222 222 224 226 229 231 234 239 244 250 255 257 256 253 251 252 253 255 258 260 261 263 265 266 266 264 260 258 258 260 260 254 248 246 245 247 251 255 256 256 257 258 255 252 250 246 244 244 241 241 244 247 247 240 232 232 229 218 214 212 204 199 204 207 206 202 198 198 197
217 219 217 215 215 215 214 212 211 211 211 211 212 215 217 218 219 220 220 221 222 224 226 229 232 237 243 249 254 256 256 254 253 254 255 255 257 259 260 262 264 265 266 264 261 261 261 260 258 251 247 246 245 245 248 253 254 253 253 255 255 251 247 243 242 242 240 237 239 243 247 246 242 241 237 227 224 224 216 210 209 211 211 212 213 213 212
215 218 218 216 215 214 213 211 210 210 210 210 211 213 215 216 218 218 219 219 221 223 224 226 230 236 243 249 254 256 255 254 254 256 257 257 258 260 260 262 264 264 264 263 261 261 260 257 254 251 248 246 245 245 248 251 253 252 251 252 254 251 247 242 240 240 240 238 237 239 243 245 244 242 237 231 231 234 229 220 217 217 216 215 217 220 221
214 217 218 217 214 213 213 211 210 210 209 209 210 211 213 215 216 217 217 218 219 221 222 225 230 236 244 250 253 254 254 254 255 257 259 261 261 263 264 265 265 264 263 262 260 257 254 252 250 249 248 247 245 246 248 250 250 250 250 250 251 250 247 244 240 238 238 239 238 238 240 242 241 238 236 233 233 236 237 230 223 222 222 221 219 220 220
213 215 217 217 214 211 212 211 210 209 208 208 208 210 212 213 214 215 216 217 218 220 222 225 231 238 244 250 252 253 255 255 257 259 262 264 265 266 268 268 267 264 262 260 256 252 250 249 248 249 250 250 248 248 250 251 250 249 250 249 250 251 250 247 244 241 238 238 239 238 239 241 241 239 236 232 231 233 236 232 226 224 225 225 225 225 222
213 214 216 216 214 211 211 211 209 208 207 207 207 209 210 211 213 214 215 216 217 219 222 227 233 239 245 250 253 255 258 259 262 265 265 265 267 267 268 269 267 262 258 255 251 249 249 249 249 250 251 252 251 250 250 251 252 252 253 252 252 253 254 251 248 244 240 236 237 240 241 240 239 238 235 231 229 230 231 231 227 225 225 226 229 229 223
212 214 215 215 214 211 209 210 209 207 207 207 207 208 209 209 211 212 214 215 217 220 223 228 234 240 246 250 253 256 260 261 263 265 266 268 268 267 265 264 262 257 252 250 249 249 250 250 251 252 252 252 252 251 250 252 254 255 256 256 255 254 254 253 248 245 241 237 237 240 242 240 235 233 233 230 228 228 230 231 229 226 225 226 229 232 230
210 213 214 213 213 211 208 208 208 207 206 206 206 207 208 208 209 211 213 215 217 220 225 229 235 241 246 250 253 256 259 260 259 262 267 270 268 263 260 256 252 250 249 249 250 251 252 253 253 253 253 254 254 254 253 254 256 257 257 258 257 253 250 249 247 245 241 238 236 237 240 241 236 231 231 231 229 229 231 232 230 227 227 226 228 234 236
208 213 213 210 211 211 207 206 207 206 205 206 206 206 207 207 208 210 212 214 216 220 226 230 235 240 245 250 252 252 254 256 255 258 260 259 259 257 253 249 246 246 247 248 250 252 252 252 252 251 252 254 256 256 256 255 256 257 256 256 256 253 248 245 243 242 239 237 237 238 240 241 238 233 231 231 230 231 233 235 234 230 230 230 231 236 239
208 212 211 207 208 210 207 205 205 205 204 205 205 206 206 206 208 210 211 214 216 220 226 230 235 240 244 248 251 251 251 252 254 257 255 251 252 251 247 245 245 244 245 248 250 252 253 252 251 251 250 251 253 255 255 253 253 254 255 254 254 253 250 245 241 238 235 234 235 237 240 240 236 234 232 232 232 233 235 239 238 233 232 234 235 239 245
208 209 206 203 205 207 205 204 204 203 203 204 204 204 205 206 208 209 211 214 216 221 225 230 235 240 243 248 251 251 251 251 254 257 256 251 250 248 243 242 243 244 246 248 249 251 253 253 252 251 250 250 249 250 251 251 250 250 252 252 250 250 249 246 241 237 234 233 232 234 238 238 234 232 232 231 232 233 235 239 240 237 237 238 239 242 247
208 206 201 199 203 206 205 203 202 203 203 203 203 203 204 206 208 209 212 214 217 221 226 231 235 240 244 247 249 249 248 250 254 255 253 249 247 245 241 240 244 247 248 250 251 252 253 254 253 252 250 249 247 246 248 249 249 249 250 251 250 250 249 247 243 238 234 233 232 233 235 236 232 230 231 231 231 233 237 240 241 241 241 242 244 247 249
206 202 196 197 201 204 204 202 201 201 202 202 202 203 204 206 208 210 212 215 217 221 226 232 236 240 244 246 246 245 245 247 251 251 247 243 241 241 241 242 245 248 249 250 253 254 255 255 254 251 249 247 247 246 246 246 247 249 252 253 253 252 251 248 245 240 235 234 234 234 234 234 232 230 230 231 231 233 236 239 241 241 242 243 246 249 252
204 197 193 198 201 201 203 202 200 200 201 201 201 202 204 207 209 211 212 214 218 223 227 232 236 240 243 244 242 241 243 246 248 245 240 237 237 238 241 243 246 248 250 252 255 256 257 257 256 253 251 250 249 248 247 248 250 251 253 254 255 255 253 250 246 242 237 235 234 234 233 232 232 231 231 231 231 232 234 236 238 240 241 243 246 249 253
203 196 194 201 204 202 201 201 200 199 200 201 201 202 204 207 210 211 213 215 219 224 228 233 237 239 240 239 237 238 243 247 245 237 232 232 234 238 241 244 246 248 250 254 259 261 262 261 258 256 254 253 252 252 251 252 253 254 255 255 256 255 253 250 247 243 240 238 236 234 232 231 231 231 231 232 232 233 234 235 236 238 239 242 245 248 252
201 197 195 199 203 203 200 199 200 199 199 200 201 202 205 209 210 211 213 216 220 224 228 232 236 238 236 234 233 237 242 243 238 231 228 231 235 239 243 244 246 249 252 255 258 261 261 261 260 258 256 255 255 255 255 254 255 256 256 255 255 254 251 248 244 239 237 237 236 234 232 230 229 230 231 232 233 235 236 237 238 240 241 243 246 249 252
195 195 196 198 201 204 202 199 199 199 199 199 200 202 205 208 210 211 213 216 220 225 228 232 234 233 230 228 230 235 238 237 231 227 228 233 237 240 244 246 248 251 253 255 257 258 258 258 258 257 257 257 256 256 257 257 256 256 256 254 252 251 248 245 241 237 235 235 234 234 232 228 226 228 230 231 233 235 237 239 240 242 244 246 248 250 251
194 194 196 198 200 203 205 203 201 200 200 199 200 202 205 207 209 211 214 217 222 225 228 231 230 225 222 224 228 232 233 230 226 226 229 234 237 239 244 248 250 251 254 257 257 257 258 258 258 257 256 255 255 256 257 258 255 252 253 252 249 248 246 243 240 237 236 235 233 233 233 230 227 228 230 231 233 236 238 239 240 242 245 247 249 251 253
197 197 198 200 201 201 203 205 204 203 202 202 203 204 205 207 210 212 215 219 222 225 227 228 223 217 217 222 227 230 230 226 223 226 230 233 235 239 243 246 247 250 254 255 255 255 257 259 259 257 255 254 255 256 256 254 251 249 250 250 248 245 242 241 242 240 237 235 232 228 228 228 225 224 226 230 233 236 240 241 243 246 248 250 252 254 255
199 199 199 202 203 202 202 203 204 205 205 206 207 207 207 209 212 214 217 219 222 224 224 219 213 212 215 220 225 227 225 221 221 225 228 230 233 238 240 240 242 243 245 247 249 251 254 254 251 251 252 250 250 251 250 248 247 245 245 244 240 236 232 233 238 240 235 229 221 210 205 212 218 217 218 224 229 235 241 244 247 252 255 257 259 260 260
199 201 202 204 206 204 201 201 204 207 208 209 209 209 210 212 213 215 217 219 221 221 217 210 206 209 213 217 222 223 219 216 218 221 224 228 232 234 233 235 242 243 243 248 253 251 248 244 240 241 242 239 241 249 251 250 245 237 233 229 224 223 222 217 217 225 226 221 210 201 200 206 215 215 214 220 229 238 244 249 253 257 259 262 265 265 263
199 201 204 206 207 205 200 200 203 208 210 212 212 212 212 213 214 215 216 217 218 216 210 204 203 207 211 215 218 217 212 212 216 218 221 225 227 228 231 236 240 240 241 246 246 239 230 224 221 217 209 207 235 258 248 242 238 224 218 217 216 216 214 207 207 216 217 206 203 205 207 212 218 217 214 219 230 241 247 249 255 262 264 265 266 265 263
200 202 204 205 206 203 200 200 203 206 210 213 214 214 213 212 212 213 214 215 212 207 202 200 202 204 208 213 214 210 206 208 211 213 217 219 220 222 226 229 229 229 231 230 224 213 206 205 197 180 172 182 222 239 206 199 201 184 188 196 205 210 211 217 238 245 214 191 197 205 209 215 218 214 212 220 227 230 230 231 238 258 280 285 283 277 267
200 202 202 203 203 201 199 200 203 206 209 212 213 212 211 208 207 208 209 208 204 199 197 198 200 202 206 209 207 202 202 204 207 209 211 212 215 217 217 217 219 220 218 213 202 186 183 191 181 168 165 173 185 164 146 144 141 141 149 157 172 189 196 212 245 220 175 162 175 192 197 208 215 210 208 220 225 223 257 358 8 3 339 305 279 259 244
199 200 201 201 202 200 199 199 201 203 205 207 208 207 204 202 202 202 201 198 195 194 195 197 198 201 204 204 200 197 198 199 202 206 206 205 209 212 209 206 208 208 201 192 178 166 168 175 174 169 162 154 143 127 116 116 120 121 125 132 140 149 145 135 171 178 161 142 141 160 163 180 207 203 197 201 193 53 28 8 353 339 314 279 254 237 226
194 196 197 199 199 198 197 197 198 199 200 201 201 199 196 195 195 194 192 191 191 192 193 194 196 199 201 198 194 193 195 196 198 201 201 201 202 203 202 198 194 185 174 169 168 163 154 147 154 158 153 142 139 130 120 121 119 111 110 120 136 144 138 120 133 170 182 178 163 154 148 149 168 170 161 155 141 110 77 358 313 292 266 243 235 236 244
190 193 194 196 197 196 194 194 195 195 195 193 192 190 188 188 188 187 187 188 189 190 191 192 195 197 195 192 190 190 191 194 194 194 195 196 195 195 193 187 174 161 158 163 159 149 133 124 132 141 143 147 155 150 141 141 135 114 105 110 121 133 139 132 130 150 178 184 169 161 159 158 155 149 145 146 145 139 132 130 242 243 225 215 231 253 264
188 191 192 193 194 194 192 191 190 189 186 184 184 184 183 183 183 184 185 186 187 189 190 192 193 192 189 188 190 190 191 193 193 191 190 190 189 189 185 173 158 154 158 155 144 135 129 127 132 139 143 149 150 144 135 135 129 107 101 107 113 118 126 134 135 138 148 154 152 154 159 158 153 151 148 138 121 110 113 121 160 210 215 228 264 278 326
187 189 191 190 191 192 191 187 183 180 179 180 181 180 180 180 181 183 184 184 185 187 190 191 190 187 184 184 186 187 189 191 190 188 187 186 182 180 175 162 153 154 155 149 140 135 133 132 133 134 135 132 127 122 119 114 109 105 108 116 124 125 124 130 137 139 139 140 140 140 141 137 130 122 115 108 104 109 119 129 142 151 134 69 48 43 38
189 191 191 189 188 189 188 183 178 177 179 180 179 178 179 180 182 183 183 183 184 186 188 189 187 186 185 185 184 184 185 187 186 185 185 183 178 173 167 159 154 153 152 147 141 134 129 127 126 123 121 119 116 115 116 113 110 112 119 126 131 131 127 126 128 127 123 117 111 108 107 107 107 109 111 112 115 117 114 110 104 91 75 60 48 37 27
192 191 189 188 187 186 184 180 177 178 180 180 178 178 180 181 182 183 182 182 184 186 187 188 187 186 186 186 185 184 183 183 184 183 181 178 174 169 165 162 157 153 152 148 141 133 127 125 123 119 117 115 114 113 112 112 111 113 116 119 119 115 112 109 107 106 104 103 100 98 99 103 105 107 107 105 104 101 95 91 85 76 63 48 29 12 358
191 189 188 188 187 186 184 181 179 179 181 180 179 180 182 182 183 183 182 183 184 185 186 187 187 186 184 184 185 185 183 181 181 181 178 175 172 169 167 165 160 156 155 150 142 136 132 128 124 122 119 117 116 115 113 113 112 110 107 105 103 101 100 100 98 97 97 99 102 104 105 105 104 103 101 100 97 93 87 80 69 49 27 9 355 345 338
187 187 188 188 187 185 184 182 181 181 182 182 181 182 183 184 184 184 184 184 185 185 186 186 186 185 184 183 184 185 184 183 182 181 177 174 171 169 168 167 164 159 158 153 145 140 138 134 130 126 123 120 119 119 118 115 111 108 106 103 101 100 100 99 99 100 101 103 107 110 112 111 109 107 103 94 76 52 34 20 8 0 354 348 342 337 332
185 186 186 186 185 185 184 183 182 183 183 183 183 183 184 185 185 185 185 185 185 185 187 187 185 184 184 183 184 185 185 186 186 182 176 172 171 170 170 168 165 162 159 155 149 145 143 141 136 131 129 127 125 123 122 119 114 111 108 105 102 101 100 100 100 102 105 106 105 103 99 95 88 77 54 26 8 359 355 352 349 346 344 340 335 330 325
182 183 183 183 183 184 184 184 184 184 185 184 184 184 185 186 186 186 186 185 185 187 187 186 186 185 184 185 186 186 185 184 184 181 175 171 170 171 171 169 166 164 161 157 152 149 147 146 144 139 136 135 133 129 127 124 122 119 116 113 109 106 104 103 100 97 95 92 84 68 47 34 26 14 2 353 348 345 343 342 341 338 335 330 324 319 316
181 180 181 180 181 183 185 186 186 186 186 185 185 186 187 187 187 186 185 185 186 187 186 186 187 187 186 186 186 186 184 183 182 180 177 173 172 172 172 169 165 164 163 160 156 153 152 152 149 146 144 142 139 135 132 129 127 127 126 123 121 118 114 110 105 91 71 41 12 357 352 351 352 350 346 341 338 336 335 333 330 326 320 315 312 311 311
182 181 181 181 180 182 185 186 186 187 187 186 186 186 186 186 187 186 185 185 185 185 185 186 187 187 187 187 186 185 184 184 183 180 178 175 174 173 173 170 166 165 165 164 160 156 156 156 154 153 152 151 148 144 140 137 135 135 134 132 133 135 134 129 123 109 327 319 325 334 339 340 339 337 333 330 327 324 321 318 314 310 308 307 307 309 310
183 182 182 182 182 183 184 185 185 186 186 185 184 184 184 185 185 185 184 185 185 184 184 187 188 186 186 187 186 184 185 186 185 183 180 177 175 174 173 172 170 169 168 166 162 160 160 159 159 160 160 158 157 155 152 149 148 149 151 155 160 165 174 190 220 249 277 296 311 321 326 327 326 324 321 316 313 310 308 306 305 305 305 306 307 309 310
185 184 182 182 183 184 184 184 183 182 182 182 181 182 183 184 184 184 184 184 183 183 184 187 188 187 185 185 185 185 187 188 187 185 182 179 177 177 175 174 174 174 173 168 165 165 166 165 164 165 167 165 165 164 163 162 164 169 177 186 197 208 219 237 251 260 274 288 301 309 313 314 313 311 308 305 303 302 302 302 304 305 306 307 309 311 312
187 184 182 183 185 185 184 182 180 179 179 179 180 182 183 184 184 184 184 183 182 183 184 186 188 187 185 184 185 187 189 189 188 185 182 181 180 179 178 177 178 179 179 175 170 169 172 173 173 173 175 175 175 175 174 174 179 188 198 208 217 225 237 251 263 273 285 294 300 303 304 304 303 302 301 300 300 301 302 304 305 307 309 310 312 313 315
187 184 182 184 187 186 182 180 179 179 180 180 181 182 183 184 184 185 184 183 182 183 184 186 188 187 185 185 185 187 189 190 188 186 183 181 181 181 182 183 183 183 183 182 180 180 182 183 183 184 186 187 188 188 189 191 198 209 220 231 240 249 258 269 278 286 293 296 297 298 299 299 300 300 300 301 302 304 306 308 309 311 312 313 314 315 316
185 182 181 183 184 182 179 179 180 180 181 181 182 183 183 183 183 184 184 183 182 183 185 187 187 187 186 187 188 188 188 188 188 186 184 182 182 184 186 188 188 187 185 187 191 196 198 196 194 194 197 200 202 205 208 211 218 228 241 253 262 270 278 285 289 292 292 292 292 294 295 296 298 300 302 304 307 309 310 312 312 313 313 313 314 315 315
182 180 178 178 179 178 178 179 180 180 180 181 182 182 183 182 182 183 183 183 184 185 186 187 187 187 187 188 189 189 188 187 188 187 185 183 185 188 189 191 193 193 191 192 199 208 212 211 209 208 210 213 217 221 225 229 235 242 251 260 269 276 282 285 286 287 288 288 290 292 294 297 300 303 306 308 311 312 313 313 312 312 312 313 314 315 315
180 178 175 175 177 179 180 179 180 180 181 181 182 182 181 181 182 183 183 184 186 187 187 187 188 189 189 189 188 187 187 188 189 188 186 187 190 192 193 194 197 198 196 198 205 211 214 216 220 224 227 230 237 244 249 253 257 262 267 274 279 280 281 281 282 283 285 287 290 294 297 301 304 308 310 311 312 312 312 311 311 312 313 314 314 315 316